STARLINK-4676, 53598

Orbit data source: Space-Track

STARLINK-4676, 53598 is a payload satellite owned by SpaceX/Seattle (US) in LEO that was launched on Sun, 28 Aug 2022 UTC via an FALCON 9 launch vehicle from the Air Force Eastern Test Range (AFETR). Payload-class satellites include a variety of spacecraft equipped with specific instruments for various scientific and technological missions. These include communications satellites like Starlink; space stations such as the ISS; scientific satellites like the Hubble; Earth observation satellites from companies like Planet Labs, Umbra, and HawkEye 360; GPS; miniature CubeSats for education and research; and military/defense satellites.

Loading next visibility...
Identifier
53598, 2022-104L
Orbit
LEO
Country
Flag of USUS
Related business
Manufacturer
SpaceX/Seattle
Mission
Operational Commercial Communications
Bus & Motor
STARLINK, Unknown motor
Mass
300 kg wet, ~290 kg dry
Launch date (UTC)
2022-08-28 (3 years ago)
Launch vehicle
FALCON 9
Launch site
Air Force Eastern Test Range (AFETR)
Object type
Payload
Rocket body
Debris
Shape & HBR
Box + 1 Pan, 10.1 m
Radar Cross Section
13.562 m², Large (>1 m²)

Expand to show TLE details & history
Last TLE update: 15 hours ago

TLE from 15 hours ago
0 STARLINK-4676
1 53598U 22104L   25347.21385910  .00000539  00000-0  51962-4 0  9993
2 53598  53.2176 272.0614 0001188 102.1931 257.9195 15.08837364182568
Epoch: 2025-12-13T05:07Z
TLE epoch observation values (Epoch: 2025-12-13T05:07:57.426Z)
Latitude
0.00005°
Longitude
112.92781°
Altitude
540.821 km
Speed
7.593 km/s
True Right ascension
18h 08m 14s
True Declination
0° 00' 00"
Sunlit
Object was in daylight at epoch
Visualization orbit readout
Latitude
Unknown
Longitude
Unknown
Altitude
Unknown
Speed
Unknown
Apparent Right ascension
Unknown
Apparent Declination
Unknown
Sunlit
N/A
Visualization observer readout
Local Sidereal Time
19:02:18
Azimuth
Unknown
Elevation
Unknown
Doppler factor
Unknown
Orbital elements
Apogee altitude
540.818 km
Perigee altitude
539.174 km
Semi-major axis
6,918.133 km
Eccentricity
0.00012
Inclination
53.2176°
RAAN
272.0614°
Arg. of periapsis
102.1931°
True anomaly
257.90619°
Mean anomaly
257.9195°
Eccentric anomaly
257.91284°
Mean motion
3.7719 °/min
Orbital period
95.44 mins
BSTAR
0.000051962
Loading maneuver chart data...
Computing Atmospheric mass density...
Loading historical data...
Loading historical data...
Loading historical data...
Loading historical data...
Loading historical data...
Loading historical data...
Loading historical data...

Documentation

Showing up to 5 results
|